FENGYUN 1C DEB

Satellite information

Favourite Embed

Satellite Type and Status

DEBRISIN ORBIT

Key statistics

Satellite FENGYUN 1C DEB at a glance.

Uptime

9660

Days in orbit

Revolutions

≈ 14.6

Per day

Orbit

SSO

Sun Synchronous Orbit

Inclination

98.6

Latest

Satellite identification and parameters

Extended collection of information and parameters for FENGYUN 1C DEB.

Object identification

Identified? True

Debris? True

Object name: FENGYUN 1C DEB

International designator: 1999-025CVT

Object number (NORAD): 32221

Object ID (CCSDS): 32221

Country: PEOPLES REPUBLIC OF CHINA (PRC)

Current information (Y/N): Y

RCS size: SMALL

Orbital parameters

Period: 98.74 minutes

Inclination: 98.5627 deg

SMA: 7076.576 km

Apoapsis: 801.825 km

Periapsis: 595.057 km

RAAN: 80.416 deg

Eccentricy: 0.01460934

Argument of periapsis: 314.4237 deg

Mean anomaly: 44.5079 deg

Mean motion: 14.58370881 rev/day

Mean motion (dot): 0.00002074 rev/day2

B* drag term: 0.000397542 1/REarth

Two-line elements (TLE)

Creation date: Oct. 19, 2025, 10:30 a.m.

Reference frame: TEME

Reference center: EARTH

Epoch: Oct. 19, 2025, 4:16 a.m. UTC

TLE line 0: 0 FENGYUN 1C DEB

TLE line 1: 1 32221U 99025CVT 25292.17793757 .00002074 00000-0 39754-3 0 9995

TLE line 2: 2 32221 98.5627 80.4160 0146093 314.4237 44.5079 14.58370881964020

Live tracking on map

Real-time ground track for satellite FENGYUN 1C DEB.

In-orbit conjunctions

A list of the most updated potential collisions computed for object FENGYUN 1C DEB.

Target Orbit TCA Probability of collision Miss distance Type
CZ-6A DEB LEO 2025-02-09 03:18:26 0.0001770231 986.0 (m) DEBRIS
COSMOS 2251 DEB LEO 2024-12-03 17:38:53 0.0001080618 126.0 (m) DEBRIS
DEMETER SSO 2024-11-11 05:52:42 0.003508834 318.0 (m) PAYLOAD
CZ-6A DEB LEO 2024-10-18 16:47:22 0.0001187848 412.0 (m) DEBRIS
NOAA 16 DEB SSO 2024-09-22 00:05:28 0.0003684685 118.0 (m) DEBRIS

Associated space launch

Chinese polar orbiting meteorological satellite

FENGYUN 1C DEB was lifted into orbit during the mission ‘Long March 4B | Feng Yun 1C’, on board a Long March 4B space rocket.

The launch took place on May 10, 1999, 1:33 a.m. from Launch Complex 7.

For more information about the launch, click the button.

Launch to space Long March 4B | Feng Yun 1C
Long March 4B | Feng Yun 1C

Agency: N/A

Status: Launch Successful

Launch date: May 10, 1999, 1:33 a.m. UTC

Rocket: Long March 4B

Launch pad: Launch Complex 7

Location: Taiyuan Satellite Launch Center, People's Republic of China

...

Latest news about this satellite

There are no fresh news available about this satellite. Check back as we update our databases every day.


Newsletter sign-up

Weekly statistics, charts and insights to help you stay on top of the space industry.